Overview Statistics Trail Chart Weather Telemetry Raw packets
 

This is the latest recevied weather packets stored in our database for station/object LU2DKV-10. If no packets are shown the sender has not sent any weather packets the latest 10 day(s).

<< 7 8 9 10 11 12 13 >>
Time Temp. Humidity Pressure Rain* Wind** Luminosity Snow
1788229107 15° C 94% 1018 hPa - - 0 W/m² -
1788227283 15° C 93% 1018 hPa - - 0 W/m² -
1788225460 15.56° C 91% 1018 hPa - - 0 W/m² -
1788223630 15.56° C 92% 1017 hPa - - 0 W/m² -
1788221806 15.56° C 91% 1017 hPa - - 0 W/m² -
1788219979 15.56° C 91% 1017 hPa - - 0 W/m² -
1788218155 15.56° C 89% 1016 hPa - - 0 W/m² -
1788216332 16.11° C 86% 1016 hPa - - 0 W/m² -
1788212878 16.67° C 81% 1015 hPa - - 0 W/m² -
1788211054 17.22° C 76% 1015 hPa - - 0 W/m² -
1788209233 17.22° C 73% 1015 hPa - - 0 W/m² -
1788207410 17.22° C 70% 1015 hPa - - 0 W/m² -
1788205591 17.78° C 70% 1014 hPa - - 0 W/m² -
1788203765 17.78° C 71% 1015 hPa - - 0 W/m² -
1788201942 18.33° C 73% 1014 hPa - - 0 W/m² -
1788200095 18.33° C 68% 1014 hPa - - 0 W/m² -
1788198274 18.33° C 70% 1014 hPa - - 0 W/m² -
1788196452 17.78° C 73% 1014 hPa - - 0 W/m² -
1788194626 17.22° C 78% 1014 hPa - - 0 W/m² -
1788192804 17.22° C 78% 1015 hPa - - 0 W/m² -
1788190977 17.22° C 78% 1015 hPa - - 0 W/m² -
1788189158 16.67° C 80% 1015 hPa - - 0 W/m² -
1788187334 16.67° C 80% 1016 hPa - - 0 W/m² -
1788185510 16.67° C 80% 1015 hPa - - 0 W/m² -
1788183688 15.56° C 87% 1015 hPa - - 0 W/m² -

* Rain since midnight (hover to see other rain measurements)
** Current wind speed in m/s (hover to see current wind gust speed)